| time (UTC) | temp F | wind direction | speed MPH | gust MPH | rain 1hr in | rain 24hr in | rain mn in | humidity % | barometer mb |
| 20260503190042 | 88 | 95 | 0.0 | 2.0 | 0.00 | 0.00 | 0.00 | 33 | 1010.3 |
| 20260503184547 | 87 | 0 | 0.0 | 2.0 | 0.00 | 0.01 | 0.00 | 36 | 1010.6 |
| 20260503183051 | 85 | 0 | 0.0 | 3.0 | 0.00 | 0.01 | 0.00 | 37 | 1010.7 |
| 20260503181535 | 83 | 0 | 0.0 | 4.0 | 0.00 | 0.01 | 0.00 | 42 | 1010.9 |
| 20260503180043 | 83 | 96 | 0.0 | 3.0 | 0.00 | 0.01 | 0.00 | 41 | 1011.1 |
| 20260503174542 | 82 | 0 | 0.0 | 1.0 | 0.00 | 0.01 | 0.00 | 43 | 1011.3 |
| 20260503173042 | 79 | 117 | 0.0 | 4.0 | 0.00 | 0.01 | 0.00 | 44 | 1011.3 |
| 20260503171538 | 78 | 146 | 0.0 | 3.0 | 0.00 | 0.01 | 0.00 | 47 | 1011.5 |
| 20260503081545 | 57 | 0 | 0.0 | 0.0 | 0.00 | 0.01 | 0.00 | 88 | 1012.2 |
| 20260503071535 | 58 | 0 | 0.0 | 0.0 | 0.00 | 0.01 | 0.00 | 86 | 1012.1 |
| 20260503054550 | 60 | 0 | 0.0 | 1.0 | 0.00 | 0.01 | 0.01 | 83 | 1012.3 |
| 20260503053034 | 61 | 0 | 0.0 | 1.0 | 0.00 | 0.01 | 0.01 | 81 | 1012.3 |
| 20260503051543 | 63 | 0 | 0.0 | 1.0 | 0.00 | 0.01 | 0.01 | 78 | 1012.1 |
| 20260503050041 | 63 | 0 | 0.0 | 1.0 | 0.00 | 0.01 | 0.01 | 78 | 1012.4 |
| 20260503044536 | 63 | 0 | 0.0 | 1.0 | 0.00 | 0.01 | 0.01 | 78 | 1012.2 |
| 20260503043036 | 63 | 0 | 0.0 | 1.0 | 0.00 | 0.01 | 0.01 | 76 | 1012.0 |
| 20260503041542 | 64 | 0 | 0.0 | 1.0 | 0.00 | 0.01 | 0.01 | 75 | 1012.1 |
| 20260503040047 | 65 | 0 | 0.0 | 1.0 | 0.00 | 0.01 | 0.01 | 74 | 1012.2 |
| 20260503034545 | 65 | 0 | 0.0 | 0.0 | 0.00 | 0.01 | 0.01 | 72 | 1012.2 |
| 20260503033053 | 65 | 106 | 0.0 | 1.0 | 0.00 | 0.01 | 0.01 | 72 | 1011.9 |
| 20260503031552 | 65 | 0 | 0.0 | 1.0 | 0.00 | 0.01 | 0.01 | 72 | 1011.6 |
| 20260503030037 | 65 | 0 | 0.0 | 0.0 | 0.00 | 0.01 | 0.01 | 73 | 1011.7 |
| 20260503024536 | 65 | 0 | 0.0 | 1.0 | 0.00 | 0.01 | 0.01 | 73 | 1011.8 |
| 20260503023039 | 66 | 293 | 1.0 | 7.0 | 0.00 | 0.01 | 0.01 | 72 | 1012.1 |
| 20260503021540 | 66 | 20 | 2.0 | 5.0 | 0.00 | 0.01 | 0.01 | 72 | 1012.2 |
| 20260503020045 | 68 | 290 | 2.0 | 8.0 | 0.00 | 0.01 | 0.01 | 69 | 1012.2 |
| 20260503014541 | 69 | 153 | 0.0 | 3.0 | 0.00 | 0.01 | 0.01 | 67 | 1011.4 |
| 20260503013035 | 68 | 281 | 0.0 | 2.0 | 0.00 | 0.01 | 0.01 | 66 | 1011.2 |
| 20260503011541 | 69 | 0 | 0.0 | 3.0 | 0.00 | 0.01 | 0.01 | 67 | 1011.2 |
| 20260503010039 | 69 | 0 | 0.0 | 2.0 | 0.00 | 0.01 | 0.01 | 65 | 1011.2 |
| 20260503004542 | 69 | 0 | 0.0 | 2.0 | 0.00 | 0.01 | 0.01 | 64 | 1011.1 |
| 20260503003039 | 69 | 298 | 0.0 | 2.0 | 0.00 | 0.01 | 0.01 | 65 | 1011.2 |
| 20260503001538 | 69 | 283 | 1.0 | 3.0 | 0.00 | 0.01 | 0.01 | 65 | 1011.2 |
| 20260503000036 | 68 | 0 | 1.0 | 3.0 | 0.00 | 0.01 | 0.01 | 66 | 1011.4 |
| 20260502234535 | 68 | 300 | 1.0 | 4.0 | 0.00 | 0.01 | 0.01 | 65 | 1011.4 |
| 20260502233043 | 69 | 285 | 1.0 | 4.0 | 0.00 | 0.01 | 0.01 | 65 | 1011.7 |
| 20260502231557 | 70 | 0 | 1.0 | 4.0 | 0.00 | 0.01 | 0.01 | 62 | 1011.8 |
| 20260502230038 | 71 | 136 | 0.0 | 3.0 | 0.00 | 0.01 | 0.01 | 61 | 1011.8 |
| 20260502224536 | 69 | 281 | 1.0 | 5.0 | 0.00 | 0.01 | 0.01 | 64 | 1012.2 |
| 20260502223047 | 69 | 117 | 0.0 | 3.0 | 0.00 | 0.01 | 0.01 | 63 | 1012.5 |
| 20260502221534 | 70 | 284 | 0.0 | 3.0 | 0.00 | 0.01 | 0.01 | 60 | 1012.7 |
| 20260502220044 | 69 | 285 | 0.0 | 5.0 | 0.00 | 0.01 | 0.01 | 64 | 1012.8 |
| 20260502214538 | 71 | 0 | 0.0 | 3.0 | 0.00 | 0.01 | 0.01 | 59 | 1013.0 |
| 20260502213048 | 70 | 94 | 0.0 | 4.0 | 0.00 | 0.01 | 0.01 | 60 | 1013.3 |
| 20260502211543 | 66 | 0 | 0.0 | 3.0 | 0.00 | 0.01 | 0.01 | 65 | 1013.4 |
| 20260502210034 | 66 | 289 | 1.0 | 4.0 | 0.00 | 0.01 | 0.01 | 65 | 1013.7 |
| 20260502204541 | 67 | 0 | 0.0 | 2.0 | 0.00 | 0.01 | 0.01 | 65 | 1013.8 |
| 20260502203039 | 64 | 93 | 0.0 | 4.0 | 0.00 | 0.01 | 0.01 | 70 | 1014.1 |
| 20260502201537 | 62 | 285 | 1.0 | 5.0 | 0.00 | 0.01 | 0.01 | 72 | 1014.1 |
| 20260502200037 | 63 | 0 | 0.0 | 2.0 | 0.00 | 0.01 | 0.01 | 69 | 1014.5 |
| 20260502194538 | 63 | 141 | 0.0 | 3.0 | 0.00 | 0.01 | 0.01 | 73 | 1014.5 |
| 20260502193041 | 60 | 0 | 0.0 | 2.0 | 0.01 | 0.01 | 0.01 | 75 | 1014.9 |
| 20260502191537 | 57 | 0 | 0.0 | 1.0 | 0.01 | 0.01 | 0.01 | 86 | 1015.1 |